Flag for U.S.A. Weather past 2 weeks in Sandpoint, Idaho, U.S.A.

Now
52 °F

Sunny.


Feels Like: 51 °F
Forecast: 23 / 51 °F
Wind: 5 mph from Southeast

Location: Sandpoint Airport

Current Time: Mar 6, 2015 at 2:33:18 PM

Latest Report: Mar 6, 2015 at 1:55 PM


Visibility: 10 mi

Pressure: 30.33 "Hg

Humidity: 41%

Dew point: 28 °F

Location of SandpointLocation

Historic Weather in Sandpoint — Graph

°F

Sandpoint temperature yesterday

Maximum temperature yesterday: 52 °F (at 2:35 PM)
Minimum temperature yesterday: 21 °F (at 2:35 AM)
Average temperature yesterday: 33 °F

Past Weeks' High & Low Weather Summary

 TemperatureHumidityPressure
High52 °F (Mar 5, 2:35 PM)100% (Feb 20, 12:35 AM)30.50 "Hg (Feb 20, 12:35 AM)
Low14 °F (Mar 4, 4:55 AM)16% (Feb 28, 1:55 PM)29.83 "Hg (Feb 27, 1:55 PM)
Average32 °F67%30.19 "Hg
* Reported Feb 19 12:15 PM — Mar 6 12:55 PM, Sandpoint, Weather by CustomWeather, © 2015

Note: Actual official high and low records may vary slightly from our data, if they occured in-between our weather recording intervals... More about our weather records

Advertising

Sandpoint weather history for previous 24 hours

 ConditionsComfort  
Time TempWeatherWind HumidityBarometerVisibility
12:55 PM
Fri, Mar 6
50 °FSunny.6 mph43%30.35 "Hg10 mi
12:35 PM50 °FSunny.5 mph43%30.36 "Hg10 mi
12:15 PM48 °FSunny.5 mph54%30.36 "Hg10 mi
11:55 AM46 °FSunny.7 mph57%30.37 "Hg10 mi
11:15 AM45 °FSunny.6 mph53%30.37 "Hg10 mi
10:55 AM45 °FSunny.5 mph53%30.38 "Hg10 mi
10:15 AM37 °FSunny.No wind70%30.39 "Hg10 mi
9:55 AM36 °FSunny.No wind75%30.40 "Hg10 mi
9:35 AM34 °FSunny.No wind81%30.40 "Hg10 mi
9:15 AM34 °FSunny.No wind81%30.40 "Hg10 mi
8:55 AM34 °FSunny.No wind70%30.40 "Hg10 mi
8:35 AM34 °FSunny.No wind75%30.40 "Hg10 mi
8:15 AM32 °FSunny.No wind87%30.40 "Hg10 mi
7:55 AM30 °FSunny.No wind86%30.39 "Hg10 mi
7:35 AM28 °FSunny.No wind93%30.39 "Hg10 mi
7:15 AM27 °FSunny.No wind93%30.38 "Hg10 mi
6:55 AM23 °FSunny.No wind100%30.38 "Hg10 mi
6:35 AM23 °FSunny.No wind100%30.38 "Hg10 mi
6:15 AM23 °FClear.No wind100%30.38 "Hg10 mi
5:55 AM23 °FClear.No wind100%30.37 "Hg10 mi
5:35 AM23 °FClear.No wind100%30.37 "Hg10 mi
5:15 AM23 °FClear.No wind100%30.37 "Hg10 mi
4:55 AM25 °FClear.No wind93%30.37 "Hg10 mi
4:35 AM25 °FClear.No wind100%30.37 "Hg10 mi
4:15 AM25 °FClear.No wind100%30.36 "Hg10 mi
3:55 AM27 °FClear.No wind93%30.36 "Hg10 mi
3:35 AM25 °FClear.No wind93%30.36 "Hg10 mi
3:15 AM27 °FClear.No wind93%30.36 "Hg10 mi
2:55 AM25 °FClear.No wind93%30.36 "Hg10 mi
2:35 AM27 °FClear.No wind93%30.36 "Hg10 mi
2:15 AM27 °FClear.No wind93%30.36 "Hg10 mi
1:55 AM27 °FClear.No wind86%30.36 "Hg10 mi
1:35 AM27 °FClear.No wind86%30.36 "Hg10 mi
1:15 AM27 °FClear.No wind86%30.35 "Hg10 mi
12:55 AM27 °FClear.No wind86%30.35 "Hg10 mi
12:35 AM27 °FClear.No wind86%30.35 "Hg10 mi
12:15 AM27 °FClear.No wind86%30.35 "Hg10 mi
11:55 PM
Thu, Mar 5
27 °FClear.No wind86%30.35 "Hg10 mi
11:35 PM28 °FClear.No wind80%30.35 "Hg10 mi
11:15 PM28 °FClear.No wind80%30.35 "Hg10 mi
10:55 PM28 °FClear.No wind80%30.35 "Hg10 mi
10:15 PM28 °FClear.No wind80%30.35 "Hg10 mi
9:55 PM28 °FClear.No wind80%30.33 "Hg10 mi
9:35 PM30 °FClear.No wind75%30.33 "Hg10 mi
9:15 PM30 °FClear.No wind75%30.33 "Hg10 mi
8:55 PM30 °FClear.No wind75%30.32 "Hg10 mi
8:35 PM30 °FClear.No wind75%30.31 "Hg10 mi
8:15 PM32 °FClear.No wind64%30.31 "Hg10 mi
7:55 PM32 °FClear.No wind64%30.31 "Hg10 mi
7:15 PM34 °FClear.No wind60%30.31 "Hg10 mi
6:55 PM36 °FClear.No wind60%30.30 "Hg10 mi
6:35 PM37 °FClear.3 mph52%30.30 "Hg10 mi
6:15 PM41 °FClear.6 mph42%30.29 "Hg10 mi
5:55 PM45 °FClear.7 mph34%30.29 "Hg10 mi
5:35 PM45 °FSunny.6 mph34%30.28 "Hg10 mi
5:15 PM46 °FSunny.5 mph34%30.28 "Hg10 mi
4:55 PM46 °FSunny.No wind34%30.28 "Hg10 mi
4:35 PM46 °FSunny.3 mph37%30.28 "Hg10 mi
4:15 PM46 °FSunny.7 mph34%30.28 "Hg10 mi
3:55 PM50 °FSunny.6 mph25%30.28 "Hg10 mi
3:35 PM50 °FSunny.6 mph25%30.28 "Hg10 mi
3:15 PM50 °FSunny.9 mph28%30.28 "Hg10 mi
2:55 PM50 °FSunny.10 mph28%30.27 "Hg10 mi
2:35 PM52 °FSunny.8 mph26%30.27 "Hg10 mi
Weather by CustomWeather, © 2015

See weather overviewHow to use our weather pages